Wind_Speed
3 3 4 5 5 5 5 5 6 6 6 6 7 7 8 9 10 11 11 11 12 12 12 12 12 12 12 12 11 11 11 11 10 10 10 9 9 9 9 9 9 9 9
4 4 5 6 6 6 6 6 6 6 7 7 8 9 9 10 11 11 12 12 12 13 13 13 13 13 13 13 13 12 12 12 12 11 11 11 11 11 11 11 11 10 10
5 5 6 7 7 7 7 6 7 7 8 9 10 10 11 11 12 12 13 13 14 14 14 13 13 13 13 14 14 14 14 13 13 13 13 12 12 12 12 12 12 12 11
6 7 7 8 8 8 8 7 8 9 9 10 11 12 12 13 13 13 14 14 15 15 14 14 14 14 15 15 15 15 15 15 15 14 14 14 14 14 14 14 13 13 13
7 8 9 9 9 9 8 8 9 10 10 11 12 12 13 14 14 14 15 15 16 16 16 16 16 16 15 16 16 16 16 16 16 16 15 15 15 15 15 14 14 14 14
8 9 10 10 10 10 9 9 10 11 11 12 12 13 14 15 15 15 16 16 17 18 18 18 18 18 17 17 17 17 17 17 17 17 16 16 16 17 16 16 16 16 16
10 10 11 11 11 11 11 11 12 12 12 13 14 14 15 16 16 16 17 18 18 19 19 19 19 19 19 19 18 18 18 18 19 18 18 17 17 17 17 17 17 17 17
11 12 13 13 12 13 13 13 13 13 14 15 15 16 16 16 16 17 18 19 20 20 20 20 20 20 20 20 20 20 19 19 20 20 20 19 19 19 18 18 18 18 18
12 12 13 13 13 13 14 14 14 15 15 16 16 17 18 17 18 19 20 21 21 22 22 22 22 22 22 21 21 21 21 21 21 21 22 21 21 20 20 19 19 20 20
12 13 13 13 14 14 14 14 14 15 16 17 18 18 19 19 20 20 21 22 22 22 22 23 23 23 23 23 23 22 22 23 23 23 22 22 22 22 21 21 21 21 21
14 14 14 14 14 15 15 15 15 16 16 17 19 20 20 21 21 22 22 23 23 23 23 23 24 24 24 24 24 24 23 23 24 24 24 23 23 23 23 23 23 23 23
15 15 15 15 15 16 17 17 16 17 17 19 20 21 22 22 22 23 23 23 23 23 24 24 25 25 25 25 25 25 25 24 25 25 25 25 25 25 25 25 25 25 24
15 16 16 16 18 18 18 17 18 18 19 20 21 22 23 23 23 24 24 24 24 24 24 25 25 26 26 26 26 26 26 26 26 26 26 27 27 28 27 26 26 26 27
16 17 17 18 19 19 19 19 19 20 21 21 22 23 23 23 23 24 24 24 24 24 24 25 25 26 26 26 26 26 26 27 26 27 28 28 28 29 28 28 28 27 27
16 17 18 18 18 19 19 20 20 21 22 23 23 23 23 23 23 23 24 24 24 25 25 25 25 26 27 27 27 27 27 27 27 27 28 28 29 30 30 30 29 29 28
16 16 17 17 18 19 20 20 20 21 22 22 22 23 23 23 23 23 24 25 25 25 25 26 26 26 27 28 28 28 28 28 28 28 28 28 30 31 31 31 31 30 30
16 16 17 18 19 20 20 21 21 22 22 22 22 22 22 22 23 24 24 24 25 26 26 26 27 27 28 28 28 28 28 28 29 29 29 30 30 30 30 31 32 31 31
16 17 17 19 20 20 21 21 21 21 22 21 21 22 22 23 24 24 24 25 25 25 26 27 27 28 28 28 28 28 29 29 29 29 29 29 29 30 31 31 32 32 32
16 16 17 19 20 20 19 19 20 20 21 22 22 22 23 23 23 23 24 25 26 26 26 26 27 27 27 27 28 28 29 29 29 29 29 28 29 30 31 31 32 32 32
16 17 18 19 19 19 19 19 19 20 20 21 22 22 22 23 23 23 24 25 26 26 26 26 27 26 27 27 28 28 29 29 29 28 29 29 29 29 30 30 31 32 32
17 18 19 19 19 19 19 20 21 21 21 21 21 21 22 23 24 24 25 25 26 26 26 26 26 26 26 27 27 27 28 28 28 28 28 28 28 29 29 30 31 31 32
18 19 19 20 20 20 20 20 22 22 21 21 21 22 23 23 24 25 25 25 26 26 25 26 26 26 26 26 26 26 27 27 27 28 28 28 28 28 29 29 30 31 32
19 19 19 20 20 19 19 19 20 21 21 22 22 23 23 23 24 25 26 26 26 26 25 25 25 25 25 25 26 26 25 25 26 27 27 27 27 28 29 29 29 30 31
19 19 19 20 20 19 20 20 20 21 22 22 22 23 23 24 25 25 25 25 25 25 24 24 24 24 24 24 24 25 26 26 26 26 27 27 27 28 28 28 29 29 29
19 19 20 21 20 20 19 19 20 21 21 21 22 22 23 24 24 25 25 25 25 25 24 24 24 24 24 24 25 26 26 26 26 26 27 27 27 27 27 28 28 28 29
19 19 20 21 21 21 21 20 20 20 20 21 22 23 23 24 25 25 26 25 24 24 24 24 25 25 25 25 26 26 26 25 26 26 26 26 26 27 27 27 27 27 28
Wind_Direction
326 316 317 312 305 309 306 311 315 323 332 335 334 328 322 319 318 317 317 315 312 310 306 303 301 299 297 295 293 292 291 288 287 285 283 281 278 275 273 269 264 258 249
321 310 306 306 301 308 311 312 313 320 324 326 325 322 319 316 313 312 312 310 306 304 302 299 297 296 295 293 291 289 288 287 286 283 282 281 279 275 272 269 266 262 254
313 307 303 295 295 302 305 312 315 316 319 320 319 316 315 313 311 309 307 305 303 302 300 297 295 293 293 291 289 286 284 283 283 281 279 278 276 274 270 267 264 262 257
308 305 297 290 294 299 302 307 310 310 312 315 314 313 312 310 308 307 307 305 303 301 299 297 295 294 292 289 286 284 282 280 278 277 276 274 274 273 271 267 262 260 258
301 297 296 293 296 301 303 304 304 305 306 310 309 310 311 309 307 304 305 304 302 300 297 296 295 295 293 289 286 284 282 279 277 276 275 274 272 271 270 269 264 261 260
303 295 293 296 297 298 296 298 300 302 303 307 306 307 308 306 305 303 302 302 302 301 299 296 294 294 290 288 286 284 281 280 278 277 276 276 274 271 269 269 267 264 262
299 295 292 295 294 293 293 295 298 299 300 301 302 303 305 304 301 300 300 299 300 300 297 295 294 293 290 285 284 282 280 278 277 276 275 276 275 273 271 269 268 267 266
298 299 297 296 292 291 295 296 296 297 298 300 300 301 302 302 298 299 298 298 297 297 293 292 291 291 288 284 284 281 279 277 277 276 275 275 275 274 272 270 268 267 267
301 301 301 301 299 294 295 295 294 297 299 300 300 300 301 299 297 296 296 296 295 295 292 289 289 288 287 285 284 281 279 278 277 276 275 274 274 273 271 270 270 267 265
298 298 299 300 297 294 294 293 293 295 296 298 299 300 300 298 296 294 294 293 293 291 290 288 288 288 286 285 283 280 278 277 276 274 272 272 273 272 270 269 267 266 264
293 294 292 294 293 293 293 290 290 291 293 296 298 299 298 296 294 293 291 291 291 290 289 289 288 287 285 284 283 280 278 277 275 274 271 271 271 271 270 269 267 265 263
289 290 293 294 294 292 289 289 289 289 291 294 296 295 294 293 292 290 289 290 289 288 288 289 288 286 285 284 282 280 279 279 279 276 273 271 269 270 269 268 267 265 263
286 290 293 293 294 292 288 286 288 289 291 294 295 294 292 291 289 289 289 289 288 287 287 289 288 288 286 284 283 281 280 280 278 276 274 272 269 268 267 267 267 266 264
289 291 293 293 294 293 289 287 288 289 293 293 293 292 292 291 289 289 289 288 287 286 287 287 286 286 286 284 283 281 280 279 277 277 274 272 269 267 267 267 267 265 265
288 290 291 292 293 293 291 288 288 289 291 292 292 293 292 290 289 289 289 289 287 286 287 286 287 286 285 284 282 282 281 279 277 277 273 272 270 268 268 268 266 265 264
288 290 292 292 292 291 291 288 288 289 290 291 293 293 291 291 290 290 290 290 289 287 286 285 287 286 286 284 281 281 280 278 277 276 274 273 272 270 269 266 266 265 263
289 290 290 292 293 292 291 290 290 293 292 293 293 294 293 292 292 292 291 289 289 288 287 285 285 286 286 284 281 280 280 279 277 276 275 272 271 270 268 265 263 262 261
287 289 288 288 290 292 290 287 289 293 294 295 295 294 294 294 295 294 292 291 290 290 288 286 287 287 286 285 282 281 279 280 279 278 276 274 271 269 267 266 263 262 261
286 287 288 290 291 291 291 289 292 295 296 295 294 294 295 296 296 296 294 292 291 290 291 289 289 288 287 286 284 281 280 280 280 277 275 274 272 271 268 267 265 263 262
286 287 290 294 295 291 290 292 293 295 296 298 298 297 297 298 297 296 295 294 293 291 292 292 291 290 288 287 285 283 282 280 279 277 274 274 273 271 269 267 266 264 262
285 285 291 293 294 290 291 293 293 293 293 295 296 295 295 296 297 296 297 297 296 295 294 293 292 291 290 289 287 285 284 282 278 277 276 275 273 271 270 269 266 265 262
287 288 292 294 292 288 288 289 292 292 291 290 291 293 294 295 297 298 298 299 299 298 296 295 293 292 290 289 287 286 285 283 280 278 276 275 274 271 271 270 267 264 263
284 290 292 292 292 289 287 287 288 290 288 287 289 294 297 298 299 300 300 300 299 300 299 297 293 292 291 290 289 287 286 283 281 280 278 276 276 273 272 270 267 266 263
282 286 290 290 289 288 288 291 289 288 289 288 291 293 296 298 298 297 297 298 300 302 301 299 296 295 295 294 292 290 288 285 282 282 280 277 276 275 273 270 268 266 264
280 283 287 289 287 287 290 291 289 288 291 292 294 295 298 299 299 299 299 299 300 301 300 299 296 294 295 295 294 292 290 286 285 284 282 279 277 275 272 270 269 266 263
282 284 288 290 288 286 287 289 290 290 291 293 294 296 297 298 299 300 298 298 299 300 299 298 296 294 295 296 296 294 292 289 287 286 285 281 278 276 273 270 269 266 264
Height
5886 5886 5886 5886 5886 5885 5885 5885 5884 5884 5884 5884 5884 5884 5883 5883 5882 5882 5881 5881 5880 5880 5879 5879 5878 5878 5877 5877 5876 5876 5876 5876 5876 5875 5876 5875 5875 5876 5876 5876 5876 5876 5876
5885 5886 5886 5885 5885 5884 5884 5884 5883 5883 5883 5882 5882 5882 5882 5881 5881 5880 5879 5879 5878 5878 5877 5877 5876 5876 5875 5875 5874 5874 5874 5874 5873 5874 5874 5873 5873 5873 5874 5874 5874 5874 5874
5885 5885 5884 5884 5884 5883 5883 5882 5882 5882 5881 5881 5881 5880 5880 5880 5879 5879 5878 5877 5876 5876 5875 5874 5874 5874 5873 5873 5872 5872 5872 5872 5871 5871 5871 5871 5871 5871 5871 5872 5872 5872 5872
5884 5884 5883 5883 5882 5881 5881 5881 5880 5880 5880 5879 5879 5878 5878 5877 5877 5876 5875 5875 5874 5873 5872 5872 5871 5871 5870 5870 5870 5869 5869 5869 5869 5869 5869 5869 5869 5869 5869 5869 5869 5870 5870
5882 5882 5882 5881 5881 5880 5880 5879 5879 5878 5878 5877 5877 5876 5876 5875 5874 5874 5873 5872 5871 5870 5870 5869 5868 5868 5868 5867 5867 5867 5866 5866 5866 5866 5866 5866 5866 5866 5866 5866 5866 5867 5867
5881 5881 5880 5880 5879 5878 5878 5877 5877 5876 5876 5875 5875 5874 5873 5873 5872 5871 5870 5869 5868 5867 5867 5866 5865 5865 5865 5864 5864 5863 5863 5863 5863 5862 5862 5862 5862 5863 5863 5863 5863 5864 5864
5879 5879 5878 5878 5877 5877 5876 5875 5875 5874 5873 5873 5872 5872 5871 5870 5869 5868 5867 5866 5865 5864 5863 5862 5862 5861 5861 5860 5860 5859 5859 5859 5859 5859 5859 5859 5859 5859 5859 5859 5859 5860 5861
5878 5877 5877 5876 5875 5874 5874 5873 5872 5872 5871 5870 5870 5869 5868 5867 5866 5865 5863 5862 5861 5861 5860 5859 5858 5857 5857 5856 5856 5855 5855 5855 5855 5855 5855 5855 5855 5855 5855 5855 5855 5856 5857
5875 5875 5874 5873 5872 5872 5871 5870 5870 5869 5868 5868 5867 5866 5865 5864 5863 5861 5860 5859 5858 5857 5856 5855 5854 5853 5853 5852 5851 5851 5851 5850 5850 5850 5850 5850 5851 5851 5851 5851 5851 5852 5853
5872 5872 5871 5871 5870 5869 5868 5868 5867 5866 5866 5865 5864 5863 5862 5860 5859 5858 5856 5855 5854 5853 5852 5851 5850 5849 5848 5847 5847 5847 5846 5846 5846 5846 5846 5846 5846 5846 5846 5847 5847 5847 5848
5869 5869 5868 5868 5867 5866 5866 5865 5864 5863 5862 5861 5860 5859 5858 5857 5855 5854 5853 5851 5850 5849 5848 5846 5845 5844 5844 5843 5842 5842 5842 5841 5841 5841 5841 5841 5841 5841 5841 5842 5842 5843 5843
5866 5866 5865 5864 5864 5863 5862 5861 5860 5860 5859 5857 5857 5855 5854 5853 5851 5850 5848 5847 5845 5844 5843 5842 5841 5839 5839 5838 5837 5837 5836 5836 5835 5835 5835 5835 5835 5836 5836 5836 5837 5837 5838
5863 5862 5862 5861 5860 5860 5859 5858 5857 5856 5854 5853 5852 5851 5849 5848 5846 5845 5843 5842 5840 5839 5838 5837 5835 5835 5834 5833 5832 5831 5831 5830 5830 5829 5829 5829 5829 5830 5830 5831 5831 5831 5832
5860 5859 5858 5858 5857 5856 5855 5854 5853 5852 5850 5849 5848 5846 5844 5843 5841 5840 5838 5837 5835 5834 5833 5832 5830 5829 5828 5827 5826 5825 5825 5824 5823 5823 5823 5823 5823 5823 5824 5824 5824 5825 5825
5857 5856 5855 5854 5853 5852 5851 5849 5848 5847 5846 5845 5843 5841 5840 5838 5836 5835 5833 5831 5830 5828 5827 5826 5825 5823 5823 5821 5820 5819 5818 5818 5817 5816 5816 5816 5816 5816 5816 5817 5817 5818 5818
5853 5852 5851 5851 5849 5848 5847 5845 5844 5842 5841 5840 5838 5836 5835 5833 5832 5830 5828 5826 5824 5823 5822 5820 5819 5818 5816 5815 5814 5813 5811 5811 5810 5809 5809 5809 5809 5809 5809 5809 5810 5810 5811
5849 5848 5848 5847 5845 5844 5842 5840 5839 5838 5837 5835 5833 5831 5829 5828 5826 5824 5822 5821 5819 5817 5815 5814 5812 5811 5810 5808 5807 5806 5804 5803 5802 5802 5801 5801 5801 5801 5801 5801 5802 5802 5803
5845 5844 5843 5842 5841 5839 5837 5836 5835 5834 5832 5830 5828 5826 5824 5823 5821 5819 5817 5815 5813 5811 5809 5807 5806 5805 5803 5802 5800 5798 5797 5796 5795 5794 5794 5793 5793 5793 5793 5793 5794 5794 5795
5842 5840 5839 5838 5836 5834 5833 5831 5830 5829 5827 5825 5823 5822 5819 5817 5815 5813 5811 5809 5807 5805 5803 5801 5800 5798 5796 5794 5793 5791 5790 5789 5788 5787 5786 5786 5785 5785 5785 5785 5786 5786 5787
5837 5836 5835 5833 5831 5830 5828 5827 5825 5824 5822 5820 5818 5816 5814 5812 5809 5807 5806 5803 5801 5799 5797 5795 5793 5791 5790 5788 5786 5784 5783 5782 5780 5779 5778 5778 5777 5777 5777 5778 5778 5778 5778
5833 5831 5830 5828 5827 5825 5824 5822 5820 5819 5817 5816 5814 5812 5809 5807 5805 5802 5800 5798 5796 5793 5791 5789 5787 5785 5783 5781 5779 5777 5776 5774 5773 5772 5771 5770 5770 5769 5769 5769 5770 5770 5770
5829 5827 5825 5824 5822 5820 5819 5817 5816 5814 5812 5810 5808 5806 5804 5802 5800 5797 5795 5793 5790 5787 5785 5782 5780 5778 5776 5774 5772 5770 5769 5768 5765 5764 5763 5763 5762 5761 5761 5761 5761 5761 5762
5824 5823 5821 5819 5817 5815 5814 5812 5810 5809 5807 5805 5803 5801 5799 5796 5794 5792 5790 5787 5784 5781 5779 5776 5774 5772 5769 5767 5765 5764 5762 5761 5759 5758 5756 5755 5754 5754 5754 5753 5753 5753 5754
5820 5818 5816 5815 5813 5811 5809 5807 5805 5804 5802 5800 5799 5796 5794 5791 5788 5786 5783 5781 5778 5776 5773 5770 5768 5766 5763 5761 5759 5757 5755 5753 5752 5751 5750 5748 5747 5746 5746 5746 5745 5745 5745
5815 5813 5812 5810 5808 5806 5804 5802 5801 5799 5797 5795 5793 5791 5789 5786 5783 5780 5778 5775 5773 5770 5767 5764 5762 5760 5757 5755 5753 5750 5748 5746 5745 5744 5743 5742 5740 5739 5738 5738 5738 5738 5737
5810 5809 5807 5805 5803 5801 5799 5798 5795 5794 5792 5790 5788 5785 5783 5780 5777 5775 5772 5770 5767 5764 5762 5759 5756 5754 5751 5749 5747 5744 5742 5740 5738 5737 5736 5734 5733 5732 5731 5730 5730 5730 5730